Location: Unspecified
(44.4377°N, 88.0525°W)
Time: 17:12:03
(UTC-05:00)

Cosmos 2058 - Visible Passes

Search period start: 28 September 2016 00:00
Search period end: 08 October 2016 00:00
Orbit: 563 x 587 km, 82.5° (Epoch: 28 September)

Date Brightness Start Highest point End Pass type
(mag) Time Alt. Az. Time Alt. Az. Time Alt. Az.
28 Sep 4.9 19:42:39 10° NE 19:44:02 13° ENE 19:44:02 13° ENE visible
28 Sep 4.4 21:17:50 10° NNW 21:20:17 33° NNW 21:20:17 33° NNW visible
29 Sep 4.6 19:45:34 10° NNE 19:47:52 16° ENE 19:47:52 16° ENE visible
29 Sep 4.6 21:21:30 10° NNW 21:24:08 32° NW 21:24:08 32° NW visible
30 Sep 4.2 19:48:43 10° NNE 19:51:47 21° ENE 19:51:47 21° ENE visible
30 Sep 4.8 21:25:15 10° NNW 21:28:02 29° WNW 21:28:02 29° WNW visible
01 Oct 3.8 19:52:00 10° NNE 19:55:34 27° ENE 19:55:45 27° ENE visible
01 Oct 5.1 21:29:04 10° NW 21:32:01 24° W 21:32:01 24° W visible
02 Oct 3.4 19:55:22 10° N 19:59:12 36° ENE 19:59:48 34° E visible
02 Oct 5.4 21:33:00 10° NW 21:35:52 18° W 21:36:04 18° W visible
03 Oct 3.1 19:58:48 10° N 20:02:48 48° ENE 20:03:56 37° ESE visible
03 Oct 5.7 21:37:08 10° NW 21:39:19 14° W 21:40:13 13° W visible
04 Oct 2.8 20:02:17 10° N 20:06:24 65° E 20:08:12 32° SSE visible
04 Oct 6.1 21:41:53 10° WNW 21:42:45 11° W 21:43:37 10° W visible
05 Oct 2.8 20:05:49 10° N 20:09:58 88° E 20:12:40 21° S visible
06 Oct 3.1 20:09:25 10° NNW 20:13:32 69° W 20:17:24 11° S visible
07 Oct 3.7 20:13:02 10° NNW 20:17:03 50° W 20:21:04 10° S visible
